Location: Central Falls
(41.8900°N, 71.3929°W)
Time: 12:58:23
(UTC+00:00)

Courier 1B Rocket - Pass Details

Date: 06 December 2023
Orbit: 920 x 1202 km, 28.2° (Epoch: 01 March)

Event Time Altitude Azimuth Distance (km) Brightness Sun altitude
Rises 20:27:01 0° 253° (WSW) 3,592 9.5 6.5°
Reaches altitude 10° 20:30:50 10° 232° (SW) 2,618 10.6 5.9°
Maximum altitude 20:34:15 15° 198° (SSW) 2,248 8.0 5.4°
Drops below altitude 10° 20:37:40 10° 164° (SSE) 2,600 7.6 4.9°
Sets 20:41:26 0° 142° (SE) 3,552 7.9 4.3°
